Simultaneous Nadir Overpasses (SNOs) Predictions

Prediction of SNOs between GOES-16 and METOP-B Satellite Orbit:

Table of predicted SNOs for the next 14.0 days since TLE Epoch: 8/11/2018
Index Date Time (GOES-16) GOES-16 Lat,Lon METOP-B Lat,Lon Distance(km) Time Diff (sec)
1 08/12/2018 02:21:00 -0.01, -75.20 0.37, -73.60 182.55 80
2 08/13/2018 14:42:30 0.01, -75.21 0.68, -78.16 336.35 80
3 08/14/2018 14:19:09 0.00, -75.21 -0.43, -73.16 233.37 80
4 08/16/2018 02:40:48 -0.01, -75.22 -0.59, -77.76 289.45 80
5 08/17/2018 02:17:28 -0.01, -75.23 0.52, -72.76 280.70 80
6 08/18/2018 14:38:58 0.01, -75.25 0.46, -77.33 236.83 80
7 08/19/2018 14:15:38 0.01, -75.26 -0.65, -72.33 333.63 80
8 08/21/2018 02:37:17 -0.02, -75.28 -0.37, -76.93 188.13 80
9 08/22/2018 02:13:57 -0.01, -75.29 0.74, -71.93 382.60 80
10 08/23/2018 14:35:26 0.02, -75.32 0.29, -76.49 133.98 80
11 08/24/2018 14:12:05 0.01, -75.33 -0.82, -71.49 437.07 80




NCC Satellite Simultaneous Nadir Overpasses (SNOs) Prediction Service
